K7JKM Weather Reports


time (UTC)temp
C
wind
direction
speed
KPH
gust
KPH
rain 1hr
cm
rain 24hr
cm
rain mn
cm
humidity
%
barometer
mb
20260902034512 17 151 0.0 1.6 0.00 0.00 0.00 59 1012.5
20260902033012 17 132 0.0 4.8 0.00 0.00 0.00 59 1012.5
20260902031504 17 195 0.0 1.6 0.00 0.00 0.00 59 1012.5
20260902030004 17 110 0.0 0.0 0.00 0.00 0.00 58 1012.3
20260902024504 17 160 0.0 0.0 0.00 0.00 0.00 58 1012.3
20260902023021 17 143 0.0 0.0 0.00 0.00 0.00 58 1012.4
20260902021524 17 133 0.0 1.6 0.00 0.00 0.00 58 1012.3
20260902020014 17 111 0.0 1.6 0.00 0.00 0.00 58 1012.3
20260902014512 17 114 0.0 1.6 0.00 0.00 0.00 58 1012.3
20260902013009 17 195 0.0 3.2 0.00 0.00 0.00 58 1012.3
20260902011504 18 231 0.0 3.2 0.00 0.00 0.00 57 1012.3
20260902010007 18 177 0.0 4.8 0.00 0.00 0.00 56 1011.9
20260902004526 18 299 0.0 6.4 0.00 0.00 0.00 56 1011.9
20260902003021 18 283 0.0 6.4 0.00 0.00 0.00 56 1011.8
20260902001516 18 309 1.6 6.4 0.00 0.00 0.00 56 1011.8
20260902000017 18 296 0.0 4.8 0.00 0.00 0.00 56 1011.7
20260901234510 19 283 0.0 3.2 0.00 0.00 0.00 51 1011.7
20260901233016 19 212 0.0 4.8 0.00 0.00 0.00 52 1011.7
20260901231506 19 86 0.0 1.6 0.00 0.00 0.00 51 1011.8
20260901230033 19 32 0.0 1.6 0.00 0.00 0.00 52 1011.9
20260901224535 19 148 0.0 0.0 0.00 0.00 0.00 53 1011.9
20260901223025 19 139 0.0 3.2 0.00 0.00 0.00 53 1011.9
20260901221520 19 188 0.0 1.6 0.00 0.00 0.00 52 1012.0
20260901220015 19 161 0.0 3.2 0.00 0.00 0.00 52 1011.9
20260901214511 20 119 0.0 3.2 0.00 0.00 0.00 52 1011.8
20260901213011 20 113 0.0 1.6 0.00 0.00 0.00 52 1011.8
20260901211534 20 200 0.0 3.2 0.00 0.00 0.00 52 1011.7
20260901210031 20 106 0.0 1.6 0.00 0.00 0.00 53 1011.7
20260901204527 20 146 0.0 1.6 0.00 0.00 0.00 52 1011.7
20260901203026 20 233 0.0 1.6 0.00 0.00 0.00 53 1011.8
20260901201520 20 245 0.0 6.4 0.00 0.00 0.00 53 1011.8
20260901200009 19 160 0.0 1.6 0.00 0.00 0.00 54 1011.9
20260901194512 19 165 0.0 1.6 0.00 0.00 0.00 54 1012.0
20260901193008 19 110 0.0 4.8 0.00 0.00 0.00 53 1012.0
20260901191509 20 167 0.0 6.4 0.00 0.00 0.00 55 1012.2
20260901190008 19 205 0.0 4.8 0.00 0.00 0.00 55 1012.4
20260901184504 18 116 0.0 1.6 0.00 0.00 0.00 57 1012.4
20260901183003 18 137 0.0 6.4 0.00 0.00 0.00 56 1012.5
20260901181511 19 175 0.0 1.6 0.00 0.00 0.00 55 1012.5
20260901180012 20 236 0.0 8.0 0.00 0.00 0.00 54 1012.5
20260901174518 19 216 0.0 8.0 0.00 0.00 0.00 58 1012.7
20260901173023 18 118 0.0 9.7 0.00 0.00 0.00 60 1012.7
20260901171509 17 146 0.0 4.8 0.00 0.00 0.00 61 1012.6
20260901170008 17 121 0.0 4.8 0.00 0.00 0.00 63 1012.6
20260901164506 16 135 0.0 6.4 0.00 0.00 0.00 64 1012.7
20260901163017 16 158 0.0 6.4 0.00 0.00 0.00 65 1012.8
20260901161519 16 70 0.0 3.2 0.00 0.00 0.00 65 1013.0
20260901160019 16 119 0.0 3.2 0.00 0.00 0.00 65 1012.9
20260901154521 16 117 0.0 3.2 0.00 0.00 0.00 65 1012.8
20260901153017 16 94 0.0 3.2 0.00 0.00 0.00 64 1012.8
20260901151521 16 162 0.0 1.6 0.00 0.00 0.00 63 1012.8
20260901150012 16 110 0.0 4.8 0.00 0.00 0.00 63 1012.7
20260901144523 15 134 0.0 3.2 0.00 0.00 0.00 63 1012.5
20260901143028 15 186 0.0 8.0 0.00 0.00 0.00 63 1012.5
20260901141527 15 116 0.0 0.0 0.00 0.00 0.00 64 1012.4
20260901140031 15 117 0.0 0.0 0.00 0.00 0.00 64 1012.3
20260901134522 15 117 0.0 0.0 0.00 0.00 0.00 64 1012.2
20260901133025 15 116 0.0 0.0 0.00 0.00 0.00 64 1012.2
20260901131515 15 117 0.0 0.0 0.00 0.00 0.00 64 1012.2
20260901130013 15 116 0.0 0.0 0.00 0.00 0.00 64 1012.1
20260901124512 15 117 0.0 1.6 0.00 0.00 0.00 64 1012.0
20260901123004 15 113 0.0 0.0 0.00 0.00 0.00 65 1012.0
20260901121503 15 110 0.0 3.2 0.00 0.00 0.00 64 1012.1
20260901120003 15 117 0.0 0.0 0.00 0.00 0.00 65 1012.0
20260901114523 15 112 0.0 1.6 0.00 0.00 0.00 65 1012.0
20260901113021 15 106 0.0 0.0 0.00 0.00 0.00 65 1011.8
20260901111517 15 115 0.0 1.6 0.00 0.00 0.00 65 1011.8
20260901110023 14 116 0.0 0.0 0.00 0.00 0.00 66 1011.6
20260901104510 14 164 0.0 0.0 0.00 0.00 0.00 67 1011.6
20260901103011 13 164 0.0 0.0 0.00 0.00 0.00 67 1011.5
20260901101529 13 164 0.0 0.0 0.00 0.00 0.00 67 1011.5
20260901100031 13 137 0.0 1.6 0.00 0.00 0.00 67 1011.5
20260901094527 14 136 0.0 1.6 0.00 0.00 0.00 67 1011.5
20260901093023 14 141 0.0 0.0 0.00 0.00 0.00 67 1011.6
20260901091516 14 86 0.0 1.6 0.00 0.00 0.00 67 1011.4
20260901090016 14 342 0.0 0.0 0.00 0.00 0.00 67 1011.3
20260901084513 14 149 0.0 0.0 0.00 0.00 0.00 67 1011.3
20260901083032 14 149 0.0 0.0 0.00 0.00 0.00 66 1011.3
20260901081530 14 184 0.0 0.0 0.00 0.00 0.00 66 1011.3
20260901080032 15 184 0.0 0.0 0.00 0.00 0.00 66 1011.3
20260901074527 15 169 0.0 0.0 0.00 0.00 0.00 66 1011.3
20260901073025 15 143 0.0 0.0 0.00 0.00 0.00 66 1011.1
20260901071526 15 172 0.0 1.6 0.00 0.00 0.00 66 1011.1
20260901070017 15 115 0.0 1.6 0.00 0.00 0.00 65 1011.1
20260901064542 15 184 0.0 1.6 0.00 0.00 0.00 65 1011.0
20260901063036 15 16 0.0 3.2 0.00 0.00 0.00 65 1010.8
20260901061534 15 260 0.0 0.0 0.00 0.00 0.00 64 1010.8
20260901060030 15 260 0.0 1.6 0.00 0.00 0.00 64 1010.6
20260901054528 16 271 0.0 1.6 0.00 0.00 0.00 64 1010.4
20260901053023 16 330 0.0 4.8 0.00 0.00 0.00 64 1010.3
20260901051520 16 283 0.0 4.8 0.00 0.00 0.00 63 1010.2
20260901050036 16 163 0.0 3.2 0.00 0.00 0.00 63 1010.0
20260901044540 16 182 1.6 8.0 0.00 0.00 0.00 62 1009.8
20260901043014 16 323 0.0 8.0 0.00 0.00 0.00 61 1009.7
20260901041509 17 298 0.0 6.4 0.00 0.00 0.00 59 1009.3
20260901040010 18 148 0.0 8.0 0.00 0.00 0.00 56 1009.2